Location: Paris
(48.8567°N, 2.3515°E)
Time: 02:50:11
(UTC+01:00)

ISS - Pass Details

Date: 23 July 2020
Orbit: 418 x 421 km, 51.6° (Epoch: 29 November)

Event Time Altitude Azimuth Distance (km) Brightness Sun altitude
Rises 22:35:55 0° 275° (W) 2,381 1.0 -8.0°
Reaches altitude 10° 22:38:03 10° 281° (W) 1,518 0.1 -8.3°
Maximum altitude 22:41:23 51° 359° (N) 548 -2.8 -8.7°
Drops below altitude 10° 22:44:42 10° 76° (ENE) 1,508 -1.2 -9.1°
Enters shadow 22:46:33 - 81° (E) 2,250 -0.4 -9.3°
